Regional Weather Roundup
Issued by NWS

Home | Current Version | Previous Version | Graphics & Text | Print | Product List | Glossary On
Versions: 1 2 3 4 5 6 7 8 9 10 11 12 13 14 15 16 17 18 19 20 21 22 23 24 25 26 27 28 29 30 31 32 33 34 35 36 37 38 39 40 41 42 43 44 45 46 47 48 49 50
000
ASUS43 KOAX 202302
RWRNE

WEATHER ROUNDUP FOR NEBRASKA
NATIONAL WEATHER SERVICE OMAHA NE
500 PM CST MON NOV 20 2017

NOTES: SATELLITE DATA IS BEING USED TO AUGMENT CLOUD COVER ABOVE
       12000 FEET.
       "FAIR" INDICATES FEW OR NO CLOUDS BELOW 12,000 FEET WITH NO
       SIGNIFICANT WEATHER AND/OR OBSTRUCTIONS TO VISIBILITY.


NEZ001>004-019>022-054>056-210000-
NEBRASKA PANHANDLE

CITY           SKY/WX    TMP DP  RH WIND       PRES   REMARKS
SCOTTSBLUFF    CLOUDY    57  15  19 NW25G33   29.77R
ALLIANCE       CLOUDY    55  21  26 NW12      29.74R
CHADRON        CLOUDY    50  21  32 SW9       29.73R
GORDON         FAIR      53  18  25 W9        29.69S
KIMBALL        CLOUDY    57  14  18 NW30G38   29.81R
SIDNEY         CLOUDY    58  15  18 NW15G26   29.79R
$$

NEZ057>060-069>072-079>082-210000-
SOUTHWEST NEBRASKA

CITY           SKY/WX    TMP DP  RH WIND       PRES   REMARKS
NORTH PLATTE   CLOUDY    61  20  20 NW15      29.68R
IMPERIAL       CLOUDY    63  16  16 NW17G30   29.73R
LEXINGTON      CLOUDY    58  23  25 NW10      29.66R
MCCOOK         CLOUDY    65  18  16 NW16      29.69R
OGALLALA       CLOUDY    59  19  21 W12       29.73R
$$

NEZ005>010-023>029-035>040-094-210000-
NORTH CENTRAL NEBRASKA

CITY           SKY/WX    TMP DP  RH WIND       PRES   REMARKS
VALENTINE      CLEAR     60  19  20 NW12      29.65R
AINSWORTH      CLOUDY    58  19  21 NW8       29.64R
BROKEN BOW     CLOUDY    57  21  24 NW10      29.65R
O`NEILL        CLOUDY    53  25  33 NW6       29.62R
ORD            CLOUDY    57  19  22 NW7       29.61R
THEDFORD       CLOUDY    58  18  21 NW9       29.68R
$$

NEZ041-046>049-061>064-073>077-083>087-210000-
SOUTH CENTRAL NEBRASKA

CITY           SKY/WX    TMP DP  RH WIND       PRES   REMARKS
GRAND ISLAND   CLEAR     56  27  32 W10       29.62R
AURORA         CLEAR     57  26  30 SW10      29.61S
HASTINGS       CLOUDY    59  23  25 S5        29.65R
HEBRON         CLOUDY    54  26  34 SW3       29.66S
HOLDREGE       CLOUDY    60  23  24 W8        29.66R
KEARNEY        CLEAR     62  22  21 W9        29.64R
YORK           CLEAR     54  27  35 SW6       29.62R
$$

NEZ011>018-030>034-042>045-210000-
NORTHEAST NEBRASKA

CITY           SKY/WX    TMP DP  RH WIND       PRES   REMARKS
NORFOLK        CLOUDY    57  22  25 NW5       29.59R
ALBION         CLEAR     56  21  25 NW7       29.59R
BLAIR          CLOUDY    53  29  39 S13       29.60S
COLUMBUS       CLEAR     57  29  34 SW8       29.59R
FREMONT        CLEAR     54  27  34 S5        29.61R
TEKAMAH        CLOUDY    56  28  34 SW7       29.60R
WAYNE          CLOUDY    51  23  34 CALM      29.59R
$$

NEZ050>053-065>068-078-088>093-210000-
SOUTHEAST NEBRASKA

CITY           SKY/WX    TMP DP  RH WIND       PRES   REMARKS
LINCOLN        CLOUDY    56  26  31 SW15      29.63S
OMAHA EPPLEY   CLOUDY    51  28  41 S9        29.62R
BEATRICE       CLOUDY    55  28  34 S16       29.64F
FALLS CITY     PTCLDY    58  27  30 SW10      29.68R
NEBRASKA CITY  MOCLDY    54  30  39 S9        29.64S
PLATTSMOUTH    CLOUDY    55  28  36 S12       29.63S
$$

NEZ044-045-051>053-067-210000-
OMAHA AREA

CITY           SKY/WX    TMP DP  RH WIND       PRES   REMARKS
OMAHA EPPLEY   CLOUDY    51  28  41 S9        29.62R
BLAIR          CLOUDY    53  29  39 S13       29.60S
FREMONT        CLEAR     54  27  34 S5        29.61R
MILLARD        CLOUDY    57  29  35 S3        29.62R
OFFUTT AFB     CLOUDY    52  27  38 S3        29.62R
PLATTSMOUTH    CLOUDY    55  28  36 S12       29.63S
WAHOO          FAIR      52  26  35 S8        29.60S
$$



USA.gov is the U.S. government's official web portal to all federal, state and local government web resources and services.